Regional Weather Roundup
Issued by NWS Grand Forks, ND

Home | Current Version | Previous Version | Text Only | Print | Product List | Glossary Off
Versions: 1 2 3 4 5 6 7 8 9 10 11 12 13 14 15 16 17 18 19 20 21 22 23 24 25 26 27 28 29 30 31 32 33 34 35 36 37 38 39 40 41 42 43 44 45 46 47 48 49 50

000
ASUS43 KFGF 021431
RWRFGF
PRAIRIE TO PINES  WEATHER ROUNDUP
NATIONAL WEATHER SERVICE EASTERN NORTH DAKOTA/GRAND FORKS ND
900 AM CDT WED SEP 02 2015

 **SATELLITE DATA USED TO AUGMENT SKY COVER AT AUTOMATED STATIONS**
 *****  WEATHER ACROSS EASTERN NORTH DAKOTA  *****

CITY           SKY/WX    TMP DP  RH WIND       PRES   REMARKS
GRAND FORKS    MOSUNNY   72  66  83 S8        29.82F
GRAND FRKS AFB CLOUDY    70  68  94 S6        29.83S
GRAND FRKS NWS   N/A     68 N/A N/A S7          N/A
DEVILS LAKE    SUNNY     72  61  68 SE9       29.81F
FARGO          SUNNY     71  63  75 SE14      29.85S
WAHPETON ARPT  SUNNY     70  61  73 SE14      29.84F
$$

 ***** WEATHER ACROSS CENTRAL AND WESTERN NORTH DAKOTA  *****

CITY           SKY/WX    TMP DP  RH WIND       PRES   REMARKS
BISMARCK       FOG       64  63  96 E3        29.81S VSB 1/4
MINOT          SUNNY     66  62  87 SW5       29.78F
JAMESTOWN      SUNNY     68  64  87 S8        29.83R
MINOT AFB      SUNNY     66  66 100 CALM      29.78S
GARRISON         N/A     67  63  87 CALM      29.80F
WILLISTON      MOSUNNY   69  53  56 NE3       29.77S
DICKINSON      MOSUNNY   68  57  68 E9        29.78F
HETTINGER      MOSUNNY   61  55  81 CALM      29.83R
$$

 *****  OTHER AIRPORT OBSERVATIONS IN OUR AREA  *****

CITY           SKY/WX    TMP DP  RH WIND       PRES   REMARKS
WALHALLA       FAIR      70  70 100 MISG      29.80F
GRAFTON AIRPOR FOG       66  66 100 S8        29.84R VSB 1
VALLEY CITY AR FAIR      68  68 100 SE8       29.84S
CANDO          FAIR      72  68  88 S6        29.82S
CAVALIER APRT  FAIR      70  64  83 S8        29.82S
GWINNER          N/A     70  70 100 SE12      29.84S
SHEYENNE NWR     N/A     68  65  89 SE8       29.95S
ROLLA          FAIR      70  68  94 S8        29.83S
 ***** THE ABOVE OBSERVATIONS ARE NON NWS ARE NOT QUALITY
       CONTROLLED AND MAY MIS-REPORT RAIN FOR SNOW...
$$

  *****  WEATHER ACROSS NORTHERN MINNESOTA  *****

CITY           SKY/WX    TMP DP  RH WIND       PRES   REMARKS
FLAG ISLAND    SUNNY     70  63  78 S9        29.87F
WARROAD        SUNNY     72  66  83 S5        29.88S
ROSEAU         SUNNY     73  66  78 S7        29.86F
HALLOCK        MOSUNNY   72  68  88 S10       29.83S
THF RVR FALLS  SUNNY     73  66  78 S10       29.86F
BAUDETTE       SUNNY     67  60  78 SE5       29.89F
WASKISH        SUNNY     73  70  88 CALM      29.90S
CROOKSTON        N/A     73 N/A N/A S14       29.86R
STEPHEN NDAWN    N/A     72  70  94 S10         N/A
GREENBUSH NDAW   N/A     72  66  83 S6          N/A
$$
  *****  WEATHER ACROSS CENTRAL AND WEST MINNESOTA  *****

CITY           SKY/WX    TMP DP  RH WIND       PRES   REMARKS
FOSSTON        SUNNY     73  64  73 S8        29.89F
BEMIDJI        SUNNY     72  69  89 S8        29.91S
PARK RAPIDS    FOG       70  68  93 SE7       29.91F VSB 3/4
ELBOW LAKE     FAIR      71  64  78 SE12      29.86F
WADENA         MOSUNNY   68  66  94 SE6       29.90F
DETROIT LAKES  SUNNY     72  64  78 SE9       29.90S
MOORHEAD       SUNNY     72  64  78 SE8       29.85F
FERGUS FALLS   SUNNY     72  63  73 SE13      29.85F
MORRIS MN      SUNNY     72  66  83 SE12      29.86F
STAPLES        SUNNY     70  70 100 SE5       29.91S
$$
  *****  WEATHER ELSEWHERE ACROSS MINNESOTA  *****

CITY           SKY/WX    TMP DP  RH WIND       PRES   REMARKS
DULUTH         LGT RAIN  66  63  90 SE8       30.01R FOG
INTRNTL FALLS  PTSUNNY   64  60  87 SE6       29.94R
ELY            DRIZZLE   63  57  82 SW7       30.01R
CLOQUET        PTSUNNY   66  63  88 E5        29.98S
WHEATON        SUNNY     66  64  94 SE14      29.86F
BRAINERD       MOSUNNY   72  64  76 SE5       29.92S
HIBBING        TSTM      67  65  93 E12G22    29.97R
ALEXANDRIA     SUNNY     70  65  84 SE10      29.92S
SAINT CLOUD    CLOUDY    69  66  90 SE7       29.91S
MINNEAPOLIS    CLOUDY    72  67  84 E10       29.92F
$$

  *****  WEATHER ACROSS SOUTH DAKOTA  *****

CITY           SKY/WX    TMP DP  RH WIND       PRES   REMARKS
SIOUX FALLS    SUNNY     72  67  84 S10       29.86F
BROOKINGS      SUNNY     70  66  88 SE10      29.88S
WATERTOWN      SUNNY     71  67  87 SE9       29.85F
HURON          SUNNY     71  67  87 S9        29.80R
SISSETON         N/A     67  64  90 S12       29.84R
ABERDEEN       SUNNY     69  65  86 E6        29.81F
MITCHELL       SUNNY     70  68  93 SE12      29.81S
PIERRE         FOG       64  64 100 SE3       29.78F VSB<1/4
MOBRIDGE       FOG       65  65 100 SE5       29.79S VSB 1/2
RAPID CITY     PTSUNNY   69  57  65 CALM      29.86S
$$

  *****  SOME WEATHER IN NEARBY STATES *****

CITY           SKY/WX    TMP DP  RH WIND       PRES   REMARKS
GLASGOW MT     SUNNY     62  42  47 SE18      29.68R
GREAT FALLS MT CLOUDY    60  35  39 CALM      29.72R
CHEYENNE WY    SUNNY     70  42  36 W16G23    30.14R
SCOTTSBLUFF NE SUNNY     64  49  57 W3        29.99R
OMAHA NE       MOSUNNY   77  68  73 S17       29.92S
DES MOINES IA  PTSUNNY   73  68  84 S16       29.99F
DAVENPORT IA   PTSUNNY   78  70  76 SW7       30.06S
CHICAGO IL     MOSUNNY   77  69  76 SW5       30.07R
EAU CLAIRE WI  CLOUDY    72  69  90 CALM      29.99R
LA CROSSE WI   CLOUDY    77  69  76 SW5       29.96S
$$

  *****  SOME NATIONAL WEATHER *****

CITY           SKY/WX    TMP DP  RH WIND       PRES   REMARKS
LA GUARDIA NY  PTSUNNY   82  62  50 SW10      30.02S
RALEIGH NC     PTSUNNY   82  71  69 CALM      30.08F
ATLANTA GA     PTSUNNY   82  69  64 W3        30.14S
NEW ORLEANS LA CLOUDY    83  73  72 NE9       30.06F
OKLAHOMA CITY  MOSUNNY   75  68  78 S13       30.06S
ALBUQUERQUE NM PTSUNNY   70  47  43 CALM      30.23R
SALT LAKE CITY MOSUNNY   75  44  33 S17       30.01R
LOS ANGELES CA CLOUDY    70  61  73 SW3       29.97R
BOISE ID       CLOUDY    63  39  41 VRB6      29.87R
SEATTLE WA     MOCLDY    55  54  94 S7        29.87R
$$

*** WEATHER ACROSS MANITOBA...SASKATCHEWAN AND ONTARIO ***
                ***ONTARIO***

CITY           SKY/WX    TMP DP  RH WIND       PRES   REMARKS
GERALDTON      MOSUNNY   68  57  68 W3        29.98S
THUNDER BAY    PTSUNNY   61  57  88 VRB2      29.99S
SIOUX LOOKOUT  SUNNY     66  59  77 S5        29.95S
TORONTO        MOSUNNY   79  68  69 VRB2      30.03S
BIG TROUT LK   CLOUDY    54  54 100 SE7       29.91S
PICKLE LAKE    MOSUNNY   70  55  60 VRB2      29.94F
DRYDEN         SUNNY     68  57  68 S8        29.94S
KENORA         MOSUNNY   70  59  68 S8        29.90F
$$
                *** MANITOBA***

CITY           SKY/WX    TMP DP  RH WIND       PRES   REMARKS
BRANDON        MOSUNNY   66  61  82 CALM      29.80S
DAUPHIN        SUNNY     64  57  77 W7        29.79R
ISLAND LAKE    MOSUNNY   64  59  82 E3        29.81F
PILOT MOUND      N/A     70  64  83 S8          N/A
THE PAS        MOSUNNY   63  48  59 N6        29.79
THOMPSON       FOG       55  55 100 CALM      29.77S VSB 1
WINNIPEG       SUNNY     70  66  88 S16       29.81S
LYNN LAKE      SUNNY     52  46  82 NW8       29.80R
CHURCHILL      CLOUDY    50  46  87 S16G24    29.86F
GILLAM         CLOUDY    50  48  93 SE9       29.84
$$
                ***SASKATCHEWAN***

CITY           SKY/WX    TMP DP  RH WIND       PRES   REMARKS
ESTEVAN        PTSUNNY   63  50  63 E7        29.78F
KINDERSLEY     PTSUNNY   57  37  47 SE10      29.63F
LLOYDMINSTER   PTSUNNY   52  43  71 SE10G20   29.61F
PRINCE ALBERT  PTSUNNY   54  48  82 E15       29.74F
REGINA         PTSUNNY   59  48  67 SE14      29.75
YORKTON        SUNNY     57  54  88 E5        29.80S
N. BATTLEFORD  SUNNY     55  45  67 SE18G24   29.66F
LA RONGE       PTSUNNY   54  46  76 E5        29.81F
SASKATOON      PTSUNNY   63  46  55 SE14G21   29.68F
SWIFT CURRENT  PTSUNNY   66  43  42 S9        29.68S
$$
NOTE: THESE ARE AUTOMATED STATIONS WITH LIMITED QUALITY CONTROL
      "FAIR" INDICATES FEW OR NO CLOUDS BELOW 12,000 FEET WITH NO
      SIGNIFICANT WEATHER AND/OR OBSTRUCTIONS TO VISIBILITY.
      SKY/WX - SKY CONDITION AND SIGNIFICANT WEATHER.
      TMP - AIR TEMPERATURE.    DP   - DEWPOINT TEMPERATURE.
      RH  - RELATIVE HUMIDITY.  PRES - PRESSURE.
      HX  - HEAT INDEX.         WCI  - WIND CHILL INDEX.
$



USA.gov is the U.S. government's official web portal to all federal, state and local government web resources and services.